K5VP Weather Reports


Display with metric or nautical units.
time (UTC)temp
F
wind
direction
speed
MPH
gust
MPH
rain 1hr
in
rain 24hr
in
rain mn
in
humidity
%
barometer
mb
20260507093237 47 103 0.0 0.0 0.00 0.10 0.00 95 1017.4
20260507092717 47 103 0.0 0.0 0.00 0.10 0.00 95 1017.4
20260507092219 48 103 0.0 0.0 0.00 0.10 0.00 95 1017.2
20260507091709 48 103 0.0 0.0 0.00 0.10 0.00 95 1017.3
20260507091215 48 103 0.0 0.0 0.00 0.10 0.00 95 1017.0
20260507090713 48 103 0.0 0.0 0.00 0.10 0.00 95 1017.1
20260507090210 48 103 0.0 0.0 0.00 0.10 0.00 95 1017.1
20260507085649 48 103 0.0 0.0 0.00 0.10 0.00 95 1017.0
20260507085141 48 103 0.0 0.0 0.00 0.10 0.00 95 1017.1
20260507084647 48 103 0.0 0.0 0.00 0.10 0.00 95 1016.9
20260507084145 48 103 0.0 0.0 0.00 0.10 0.00 94 1017.0
20260507083648 49 84 0.0 0.0 0.00 0.10 0.00 95 1017.0
20260507083139 49 84 0.0 0.0 0.00 0.10 0.00 95 1016.9
20260507082639 49 114 0.0 0.0 0.00 0.10 0.00 95 1016.8
20260507082126 49 114 0.0 0.0 0.00 0.10 0.00 95 1017.0
20260507081633 49 115 0.0 0.0 0.00 0.10 0.00 95 1016.9
20260507081139 49 115 0.0 0.0 0.00 0.10 0.00 95 1016.9
20260507080638 49 115 0.0 0.0 0.00 0.10 0.00 95 1016.9
20260507080130 49 120 0.0 0.0 0.00 0.11 0.00 95 1016.9
20260507075620 49 120 0.0 0.0 0.00 0.12 0.00 95 1016.9
20260507075104 49 120 0.0 0.0 0.00 0.12 0.00 95 1017.0
20260507074549 49 356 0.0 0.0 0.00 0.12 0.00 95 1017.0
20260507074054 49 342 0.0 0.0 0.00 0.12 0.00 95 1017.0
20260507073533 48 335 0.0 0.0 0.00 0.12 0.00 95 1017.1
20260507073032 48 60 0.0 0.0 0.00 0.12 0.00 95 1017.0
20260507072512 48 81 0.0 0.0 0.00 0.12 0.00 95 1017.0
20260507072013 48 81 0.0 0.0 0.00 0.13 0.00 95 1017.0
20260507071513 48 81 0.0 0.0 0.00 0.17 0.00 95 1017.0
20260507071016 48 81 0.0 0.0 0.00 0.17 0.00 95 1017.0
20260507070505 48 81 0.0 0.0 0.00 0.18 0.00 95 1017.0
20260507065955 48 81 0.0 0.0 0.00 0.18 0.00 95 1017.0
20260507065459 49 81 0.0 0.0 0.00 0.18 0.00 95 1016.9
20260507064937 49 81 0.0 0.0 0.00 0.20 0.00 95 1016.9
20260507064438 49 81 0.0 0.0 0.00 0.20 0.00 95 1017.0
20260507063938 49 81 0.0 0.0 0.00 0.20 0.00 95 1016.9
20260507063440 49 79 0.0 0.0 0.00 0.20 0.00 95 1016.8
20260507062921 49 203 0.0 0.0 0.00 0.20 0.00 95 1017.1
20260507062406 49 203 0.0 0.0 0.00 0.20 0.00 95 1017.2
20260507061855 49 245 0.0 0.0 0.00 0.20 0.00 95 1017.3
20260507061339 49 249 0.0 0.0 0.00 0.20 0.00 95 1017.3
20260507060817 49 249 0.0 0.0 0.00 0.20 0.00 95 1017.1
20260507060256 49 248 0.0 0.0 0.00 0.20 0.00 96 1017.2
20260507055752 49 257 0.0 0.0 0.00 0.20 0.00 96 1017.3
20260507055242 49 256 0.0 0.0 0.00 0.21 0.00 96 1017.1
20260507054750 49 256 0.0 0.0 0.00 0.21 0.00 96 1017.3
20260507054243 49 256 0.0 0.0 0.00 0.21 0.00 96 1017.4
20260507053722 49 256 0.0 0.0 0.00 0.21 0.00 96 1017.4
20260507053218 49 121 0.0 0.0 0.00 0.21 0.00 96 1017.2
20260507052709 49 121 0.0 0.0 0.00 0.21 0.00 96 1017.2
20260507052151 49 121 0.0 0.0 0.00 0.21 0.00 96 1017.4
20260507051656 49 121 0.0 0.0 0.00 0.21 0.00 95 1017.0
20260507051153 49 121 0.0 0.0 0.00 0.21 0.00 96 1017.0
20260507050659 49 121 0.0 0.0 0.00 0.21 0.00 95 1017.0
20260507050154 50 121 0.0 0.0 0.00 0.21 0.00 95 1017.0
20260507045648 50 121 0.0 0.0 0.00 0.21 0.21 95 1017.1
20260507045128 50 121 0.0 0.0 0.00 0.21 0.21 95 1017.2
20260507044618 50 121 0.0 0.0 0.00 0.23 0.21 95 1017.0
20260507044055 50 121 0.0 0.0 0.00 0.28 0.21 95 1017.2
20260507043602 50 121 0.0 0.0 0.00 0.32 0.21 95 1017.3
20260507043101 50 121 0.0 0.0 0.00 0.33 0.21 95 1017.3
20260507042542 50 121 0.0 0.0 0.00 0.33 0.21 95 1017.3
20260507042031 50 121 0.0 0.0 0.00 0.34 0.21 95 1017.1
20260507041531 50 121 0.0 0.0 0.00 0.34 0.21 95 1017.3
20260507041033 51 121 0.0 0.0 0.00 0.34 0.21 95 1017.4
20260507040537 51 121 1.0 0.0 0.00 0.34 0.21 95 1017.4
20260507040043 51 121 1.0 0.0 0.00 0.34 0.21 95 1017.4
20260507035523 51 121 2.0 0.0 0.00 0.34 0.21 95 1017.2
20260507035020 51 121 2.0 0.0 0.00 0.34 0.21 95 1017.4
20260507034526 51 121 0.0 0.0 0.00 0.34 0.21 95 1017.4
20260507034019 51 121 0.0 0.0 0.00 0.34 0.21 95 1017.4
20260507033459 51 121 0.0 0.0 0.00 0.34 0.21 95 1017.3
20260507032948 51 121 0.0 26.0 0.00 0.34 0.21 95 1017.2
20260507032432 51 121 0.0 26.0 0.00 0.34 0.21 95 1017.0
20260507031933 51 121 0.0 26.0 0.00 0.34 0.21 95 1017.0
20260507031438 51 121 0.0 26.0 0.00 0.34 0.21 95 1016.7
20260507030923 52 121 0.0 0.0 0.00 0.34 0.21 95 1016.7
20260507030418 52 121 1.0 0.0 0.00 0.34 0.21 95 1016.8
20260507025925 52 108 1.0 0.0 0.00 0.34 0.21 95 1016.6
20260507025432 52 352 0.0 1.0 0.00 0.34 0.21 95 1016.6
20260507024923 52 352 0.0 1.0 0.00 0.34 0.21 95 1016.7
20260507024402 52 342 0.0 0.0 0.00 0.35 0.21 95 1016.7
20260507023849 52 127 0.0 21.0 0.00 0.35 0.21 95 1016.7
20260507023329 52 146 0.0 16.0 0.00 0.35 0.21 95 1016.7
20260507022826 52 146 2.0 0.0 0.00 0.35 0.21 95 1016.7
20260507022319 52 264 3.0 28.0 0.00 0.35 0.21 95 1016.6
20260507021803 52 264 0.0 0.0 0.00 0.35 0.21 95 1016.6
20260507021244 52 264 1.0 0.0 0.00 0.35 0.21 95 1016.7
20260507020745 53 264 2.0 98.0 0.00 0.35 0.21 95 1016.5
20260507020240 52 264 3.0 98.0 0.00 0.35 0.21 95 1016.4
20260507015726 53 264 5.0 0.0 0.00 0.35 0.21 95 1016.6
20260507015218 53 264 1.0 0.0 0.00 0.35 0.21 95 1016.7
20260507014703 53 264 0.0 0.0 0.00 0.35 0.21 95 1016.6
20260507014147 53 264 0.0 0.0 0.00 0.35 0.21 95 1016.7
20260507013648 53 264 0.0 0.0 0.00 0.35 0.21 95 1016.8
20260507013154 53 264 1.0 0.0 0.00 0.35 0.21 95 1016.9
20260507012654 53 264 1.0 0.0 0.00 0.35 0.21 95 1017.0
20260507012149 53 264 0.0 25.0 0.00 0.35 0.21 95 1016.9
20260507011650 53 264 0.0 0.0 0.00 0.35 0.21 95 1016.8
20260507011150 53 264 0.0 0.0 0.00 0.35 0.21 95 1016.7
20260507010636 53 264 0.0 0.0 0.00 0.35 0.21 95 1016.5
20260507010125 53 264 0.0 0.0 0.00 0.35 0.21 95 1016.5
20260507005612 53 259 0.0 0.0 0.00 0.35 0.21 95 1016.7
20260507005116 53 259 0.0 0.0 0.00 0.35 0.21 95 1016.9
20260507004607 53 259 0.0 0.0 0.00 0.35 0.21 95 1017.4
20260507004049 53 259 0.0 0.0 0.00 0.35 0.21 95 1017.4
20260507003549 53 259 0.0 0.0 0.00 0.35 0.21 95 1017.2
20260507003047 53 259 0.0 0.0 0.00 0.35 0.21 95 1017.2
20260507002550 53 259 0.0 0.0 0.00 0.35 0.21 94 1017.2
20260507002049 53 249 0.0 0.0 0.00 0.35 0.21 94 1016.9
20260507001537 53 254 0.0 0.0 0.00 0.35 0.21 94 1016.9
20260507001015 53 255 0.0 0.0 0.00 0.35 0.21 94 1016.5
20260507000459 53 255 0.0 0.0 0.00 0.35 0.21 94 1016.3
20260506235938 54 117 0.0 0.0 0.00 0.35 0.21 94 1016.0
20260506235429 54 117 0.0 0.0 0.00 0.35 0.21 94 1015.7
20260506234914 54 117 0.0 0.0 0.00 0.35 0.21 94 1015.5
20260506234400 54 114 0.0 0.0 0.00 0.35 0.21 94 1015.3
20260506233845 54 114 0.0 0.0 0.00 0.35 0.21 94 1015.3
20260506233326 54 253 0.0 0.0 0.00 0.36 0.21 94 1015.3
20260506232819 54 253 0.0 0.0 0.00 0.36 0.21 94 1015.0
20260506232316 54 253 0.0 0.0 0.00 0.36 0.21 94 1015.1
20260506231755 54 110 0.0 0.0 0.00 0.36 0.21 94 1014.9
20260506231303 54 109 0.0 0.0 0.00 0.36 0.21 94 1015.0
20260506230746 54 42 0.0 0.0 0.00 0.36 0.21 94 1015.0
20260506230232 54 42 0.0 0.0 0.00 0.36 0.21 94 1015.0
20260506225738 54 45 0.0 0.0 0.04 0.36 0.21 94 1014.9
20260506225221 54 44 0.0 1.0 0.06 0.36 0.21 94 1014.5
20260506224718 54 72 0.0 0.0 0.06 0.37 0.21 94 1014.9
20260506224159 54 63 0.0 0.0 0.06 0.36 0.20 94 1015.2
20260506223655 54 271 0.0 0.0 0.08 0.37 0.20 94 1015.6
20260506223138 54 270 0.0 0.0 0.08 0.36 0.19 94 1016.0
20260506222629 54 269 0.0 0.0 0.07 0.36 0.19 94 1016.7
20260506222111 54 268 0.0 0.0 0.04 0.36 0.18 94 1016.9
20260506221600 54 269 0.0 0.0 0.04 0.35 0.18 93 1016.6
20260506221045 54 274 0.0 0.0 0.00 0.35 0.16 93 1016.5
20260506220530 54 274 0.0 0.0 0.00 0.36 0.16 93 1016.0
20260506220035 54 274 0.0 0.0 0.00 0.36 0.16 93 1015.9
20260506215530 54 262 0.0 0.0 0.00 0.35 0.16 93 1016.1
20260506215013 55 150 0.0 0.0 0.00 0.35 0.16 93 1016.1
20260506214458 54 150 0.0 0.0 0.00 0.36 0.16 93 1015.7
20260506214002 55 150 0.0 0.0 0.04 0.36 0.16 93 1015.9
20260506213506 55 150 0.0 0.0 0.04 0.36 0.16 93 1015.9
20260506212947 54 150 0.0 0.0 0.04 0.36 0.16 92 1015.8
20260506212432 54 150 0.0 0.0 0.05 0.35 0.14 92 1015.5
20260506211925 55 77 0.0 0.0 0.06 0.35 0.14 91 1015.2
20260506211409 55 212 0.0 0.0 0.06 0.36 0.14 91 1015.7
20260506210856 55 217 0.0 0.0 0.05 0.35 0.14 90 1015.7
20260506210334 55 218 0.0 0.0 0.05 0.34 0.14 90 1015.7
20260506205818 55 218 0.0 0.0 0.00 0.34 0.13 89 1015.9
20260506205316 55 219 0.0 0.0 0.00 0.34 0.13 89 1016.0
20260506204805 55 220 0.0 0.0 0.00 0.33 0.12 88 1016.1
20260506204243 55 224 0.0 0.0 0.00 0.33 0.12 88 1016.3
20260506203738 55 225 0.0 0.0 0.00 0.33 0.12 88 1016.0
20260506203228 55 41 0.0 0.0 0.00 0.33 0.12 88 1016.0
20260506202715 55 35 0.0 0.0 0.00 0.33 0.12 89 1016.0
20260506202209 55 34 0.0 0.0 0.00 0.33 0.12 89 1015.6
20260506201711 55 42 0.0 0.0 0.00 0.33 0.12 88 1015.8
20260506201200 56 251 0.0 0.0 0.00 0.33 0.12 90 1016.2
20260506200702 55 251 0.0 0.0 0.00 0.33 0.12 89 1016.4
20260506200145 55 252 0.0 0.0 0.00 0.33 0.12 88 1016.3
20260506195649 55 255 2.0 4.0 0.00 0.33 0.12 89 1016.4
20260506195156 55 260 2.0 78.0 0.00 0.33 0.12 88 1016.4
20260506194636 55 176 0.0 1.0 0.00 0.33 0.12 88 1016.9
20260506194143 55 181 0.0 0.0 0.00 0.33 0.12 88 1016.7
20260506193640 55 127 0.0 0.0 0.00 0.33 0.12 88 1016.4
20260506193138 55 115 0.0 1.0 0.00 0.33 0.12 88 1016.2
20260506192632 55 41 0.0 0.0 0.00 0.33 0.12 88 1016.2
20260506192116 55 76 0.0 0.0 0.00 0.33 0.12 87 1016.4
20260506191617 55 109 0.0 0.0 0.00 0.33 0.12 86 1016.2
20260506191106 55 7 0.0 1.0 0.00 0.33 0.12 86 1016.1
20260506190554 56 55 0.0 1.0 0.00 0.33 0.12 87 1015.9
20260506190036 55 98 0.0 3.0 0.00 0.33 0.12 86 1015.7
20260506185542 55 108 0.0 3.0 0.00 0.33 0.12 86 1015.7
20260506185043 55 96 0.0 0.0 0.00 0.33 0.12 85 1016.2
20260506184549 55 76 0.0 3.0 0.00 0.33 0.12 84 1016.4
20260506184039 56 69 0.0 3.0 0.00 0.33 0.12 85 1016.4
20260506183539 56 67 0.0 1.0 0.00 0.33 0.12 86 1016.5
20260506183038 55 79 0.0 0.0 0.00 0.33 0.12 86 1016.2
20260506182542 55 73 0.0 0.0 0.00 0.33 0.12 86 1016.2
20260506182040 55 89 0.0 3.0 0.00 0.33 0.12 86 1016.1
20260506181520 55 19 0.0 0.0 0.00 0.33 0.12 88 1016.1
20260506181009 54 112 0.0 0.0 0.00 0.33 0.12 89 1015.9
20260506180516 53 94 0.0 3.0 0.00 0.33 0.12 89 1016.0
20260506180013 53 64 0.0 1.0 0.00 0.33 0.12 88 1016.1
20260506175519 53 233 0.0 0.0 0.00 0.33 0.12 88 1016.6
20260506175013 54 111 0.0 3.0 0.00 0.33 0.12 87 1016.4
20260506174456 54 99 0.0 0.0 0.00 0.33 0.12 88 1016.5
20260506173958 54 263 0.0 3.0 0.00 0.33 0.12 88 1016.4
20260506173442 54 58 0.0 0.0 0.00 0.33 0.12 89 1016.3
20260506172930 53 44 0.0 0.0 0.00 0.33 0.12 89 1016.5
20260506172410 53 238 0.0 0.0 0.00 0.33 0.12 89 1016.2
20260506171907 53 109 0.0 0.0 0.00 0.33 0.12 90 1016.1
20260506171349 53 158 0.0 0.0 0.00 0.33 0.12 90 1016.1
20260506170834 53 90 0.0 0.0 0.00 0.33 0.12 90 1016.1
20260506170316 53 76 0.0 0.0 0.00 0.33 0.12 90 1016.1
20260506165814 53 81 0.0 5.0 0.00 0.33 0.12 89 1016.0
20260506165313 53 80 0.0 5.0 0.00 0.33 0.12 89 1015.7
20260506164806 53 50 0.0 5.0 0.00 0.33 0.12 89 1015.6
20260506164246 53 37 0.0 5.0 0.00 0.33 0.12 90 1015.6
20260506163743 53 136 0.0 1.0 0.00 0.33 0.12 90 1015.6
20260506163250 53 55 0.0 5.0 0.00 0.33 0.12 90 1015.7
20260506162730 53 0 0.0 1.0 0.00 0.33 0.12 91 1015.5
20260506162232 53 51 0.0 1.0 0.00 0.33 0.12 91 1015.5
20260506161737 52 53 0.0 0.0 0.00 0.33 0.12 90 1015.8
20260506161236 52 43 0.0 5.0 0.00 0.33 0.12 91 1016.0
20260506160720 52 291 0.0 5.0 0.00 0.33 0.12 92 1016.1
20260506160220 52 26 0.0 2.0 0.00 0.33 0.12 92 1015.9
20260506155701 52 19 0.0 2.0 0.00 0.33 0.12 92 1015.9
20260506155149 51 64 0.0 3.0 0.00 0.33 0.12 93 1016.0
20260506154655 51 83 0.0 1.0 0.00 0.33 0.12 93 1016.2
20260506154149 51 74 0.0 0.0 0.00 0.33 0.12 93 1016.4
20260506153631 51 86 0.0 0.0 0.00 0.33 0.12 93 1016.3
20260506153134 51 63 0.0 0.0 0.00 0.34 0.12 93 1016.1
20260506152623 51 51 0.0 3.0 0.00 0.34 0.12 93 1016.1
20260506152115 51 101 0.0 3.0 0.00 0.36 0.12 93 1016.0
20260506151605 51 85 0.0 0.0 0.00 0.36 0.12 93 1016.0
20260506151045 50 89 0.0 0.0 0.00 0.37 0.12 93 1015.8
20260506150551 50 101 0.0 0.0 0.00 0.37 0.12 93 1015.7
20260506150047 50 97 0.0 1.0 0.00 0.37 0.12 93 1015.7
20260506145549 50 10 0.0 2.0 0.00 0.37 0.12 94 1015.6
20260506145048 50 347 0.0 0.0 0.00 0.38 0.12 94 1015.4
20260506144531 50 44 0.0 2.0 0.00 0.40 0.12 94 1015.4
20260506144033 50 204 0.0 1.0 0.00 0.40 0.12 94 1015.3
20260506143529 50 37 0.0 0.0 0.00 0.40 0.12 93 1015.2
20260506143022 50 63 0.0 2.0 0.00 0.40 0.12 93 1015.2
20260506142507 50 201 0.0 5.0 0.00 0.41 0.12 93 1015.2
20260506142004 50 43 0.0 5.0 0.00 0.41 0.12 93 1014.9
20260506141508 50 156 0.0 4.0 0.00 0.41 0.12 93 1014.8
20260506141003 50 70 0.0 2.0 0.00 0.41 0.12 94 1014.7
20260506140447 50 91 0.0 0.0 0.00 0.41 0.12 94 1014.5
20260506135929 50 66 0.0 1.0 0.00 0.41 0.12 94 1014.5
20260506135416 50 102 0.0 2.0 0.00 0.41 0.12 94 1014.7
20260506134900 50 108 0.0 0.0 0.00 0.41 0.12 94 1014.5
20260506134405 50 31 0.0 5.0 0.00 0.41 0.12 94 1014.4
20260506133906 50 82 0.0 1.0 0.00 0.41 0.12 94 1014.3
20260506133406 50 162 10.0 0.0 0.00 0.41 0.12 94 1014.2
20260506132910 50 113 17.0 125.0 0.00 0.41 0.12 94 1014.1
20260506132350 51 50 10.0 91.0 0.00 0.41 0.12 94 1014.2
20260506131828 51 340 4.0 91.0 0.00 0.41 0.12 95 1014.2
20260506131309 51 67 1.0 66.0 0.00 0.41 0.12 95 1014.0
20260506130813 51 109 0.0 2.0 0.00 0.41 0.12 95 1013.8
20260506130309 51 79 0.0 4.0 0.00 0.41 0.12 95 1013.6
20260506125815 51 63 0.0 4.0 0.00 0.41 0.12 95 1013.4
20260506125313 51 65 0.0 2.0 0.00 0.41 0.12 95 1013.2
20260506124756 51 103 0.0 3.0 0.00 0.41 0.12 95 1013.0
20260506124126 51 63 0.0 3.0 0.00 0.41 0.12 95 1013.1
20260506123518 51 65 0.0 0.0 0.00 0.41 0.12 95 1013.2
20260506122859 51 37 0.0 2.0 0.00 0.41 0.12 95 1013.1
20260506122248 51 205 0.0 3.0 0.00 0.41 0.12 95 1013.0
20260506121633 51 23 0.0 2.0 0.00 0.41 0.12 95 1012.9
20260506121023 51 70 0.0 0.0 0.00 0.41 0.12 95 1013.0
20260506120402 51 84 0.0 1.0 0.00 0.41 0.12 95 1012.9
20260506115743 51 54 0.0 0.0 0.00 0.41 0.12 95 1012.7
20260506115110 51 66 0.0 0.0 0.00 0.41 0.12 95 1012.8
20260506114442 51 63 0.0 0.0 0.00 0.41 0.12 95 1013.0
20260506113812 51 63 0.0 0.0 0.00 0.41 0.12 95 1012.9
20260506113158 50 54 0.0 0.0 0.00 0.41 0.12 95 1012.9
20260506112524 50 60 0.0 0.0 0.00 0.41 0.12 95 1012.7
20260506111849 50 53 0.0 0.0 0.00 0.41 0.12 95 1012.7
20260506111224 50 76 0.0 0.0 0.00 0.41 0.12 95 1012.5
20260506110600 50 76 0.0 0.0 0.00 0.41 0.12 95 1012.4
20260506105946 50 75 0.0 0.0 0.00 0.41 0.12 95 1012.5
20260506105316 50 74 0.0 0.0 0.00 0.41 0.12 95 1012.6
20260506104645 50 73 0.0 5.0 0.00 0.41 0.12 95 1012.4
20260506104023 50 49 0.0 0.0 0.00 0.41 0.12 95 1012.6
20260506103410 50 81 0.0 1.0 0.00 0.40 0.11 95 1012.4
20260506102801 50 236 0.0 1.0 0.00 0.40 0.11 94 1012.3
20260506102151 51 42 0.0 2.0 0.00 0.40 0.11 94 1012.3
20260506101536 51 254 0.0 1.0 0.00 0.40 0.11 94 1012.8
20260506100921 51 344 0.0 0.0 0.00 0.40 0.11 94 1012.3
20260506100255 51 27 0.0 3.0 0.00 0.40 0.11 94 1012.0
20260506095627 51 54 0.0 2.0 0.00 0.40 0.11 94 1011.8
20260506094952 51 40 0.0 0.0 0.00 0.40 0.11 94 1012.0
20260506094343 51 59 0.0 2.0 0.00 0.40 0.11 94 1011.5
20260506093712 51 63 0.0 1.0 0.00 0.40 0.11 94 1011.2